Time,TemperatureF,DewpointF,PressureIn,WindDirection,WindDirectionDegrees,WindSpeedMPH,WindSpeedGustMPH,Humidity,HourlyPrecipIn,Conditions,Clouds,dailyrainin,SoftwareType,DateUTC
2013-11-23 00:00:00,47.7,46.6,29.94,East,90,0.0,1.6,96,0.17,,---,0.00,VWS V14.01,2013-11-23 07:00:00,
2013-11-23 00:05:00,47.7,46.6,29.94,South,180,0.0,3.4,96,0.17,,---,0.00,VWS V14.01,2013-11-23 07:05:00,
2013-11-23 00:10:00,47.8,46.8,29.97,SW,225,0.0,0.0,96,0.16,,---,0.04,VWS V14.01,2013-11-23 07:10:00,
2013-11-23 00:15:00,48.0,46.9,29.97,SW,225,0.0,0.0,96,0.16,,---,0.04,VWS V14.01,2013-11-23 07:15:00,
2013-11-23 00:20:00,48.0,46.9,29.97,SW,225,0.0,0.0,96,0.20,,---,0.08,VWS V14.01,2013-11-23 07:20:00,
2013-11-23 00:25:00,48.0,46.9,29.97,SW,225,5.8,5.8,96,0.16,,---,0.08,VWS V14.01,2013-11-23 07:25:00,
2013-11-23 00:30:00,48.0,46.9,29.97,WSW,248,0.0,0.0,96,0.20,,---,0.12,VWS V14.01,2013-11-23 07:30:00,
2013-11-23 00:35:00,48.0,46.9,29.97,SW,225,0.0,0.9,96,0.21,,---,0.17,VWS V14.01,2013-11-23 07:35:00,
2013-11-23 00:41:00,47.8,46.8,29.97,West,270,0.0,0.0,96,0.21,,---,0.17,VWS V14.01,2013-11-23 07:41:00,
2013-11-23 00:46:00,47.8,46.8,29.97,WSW,248,0.0,0.0,96,0.25,,---,0.21,VWS V14.01,2013-11-23 07:46:00,
2013-11-23 00:51:00,47.8,46.8,29.97,WNW,292,0.0,0.0,96,0.25,,---,0.21,VWS V14.01,2013-11-23 07:51:00,
2013-11-23 00:56:00,47.7,46.6,29.97,WNW,292,0.0,0.0,96,0.25,,---,0.25,VWS V14.01,2013-11-23 07:56:00,
2013-11-23 01:01:00,47.8,46.8,29.97,West,270,0.0,0.0,96,0.29,,---,0.29,VWS V14.01,2013-11-23 08:01:00,
2013-11-23 01:06:00,47.8,46.8,29.97,NW,315,0.0,0.0,96,0.29,,---,0.29,VWS V14.01,2013-11-23 08:06:00,
2013-11-23 01:11:00,47.5,46.4,29.97,North,0,0.0,0.0,96,0.29,,---,0.33,VWS V14.01,2013-11-23 08:11:00,
2013-11-23 01:16:00,47.7,46.6,29.97,North,0,0.0,0.0,96,0.29,,---,0.33,VWS V14.01,2013-11-23 08:16:00,
2013-11-23 01:21:00,47.3,46.2,29.97,North,0,0.0,0.0,96,0.25,,---,0.33,VWS V14.01,2013-11-23 08:21:00,
2013-11-23 01:26:00,47.3,46.2,29.97,East,90,0.0,0.0,96,0.29,,---,0.37,VWS V14.01,2013-11-23 08:26:00,
2013-11-23 01:31:00,47.5,46.4,29.97,East,90,0.0,0.0,96,0.25,,---,0.37,VWS V14.01,2013-11-23 08:31:00,
2013-11-23 01:36:00,47.5,46.4,29.97,SE,135,2.5,2.5,96,0.20,,---,0.37,VWS V14.01,2013-11-23 08:36:00,
2013-11-23 01:41:00,47.7,46.6,29.97,ENE,68,2.2,3.1,96,0.25,,---,0.42,VWS V14.01,2013-11-23 08:41:00,
2013-11-23 01:46:00,47.5,46.4,29.97,East,90,0.0,0.0,96,0.21,,---,0.42,VWS V14.01,2013-11-23 08:46:00,
2013-11-23 01:51:00,47.7,46.6,29.97,East,90,0.0,0.0,96,0.24,,---,0.45,VWS V14.01,2013-11-23 08:51:00,
2013-11-23 01:56:00,47.5,46.4,29.97,NNW,338,0.0,0.0,96,0.20,,---,0.45,VWS V14.01,2013-11-23 08:56:00,
2013-11-23 02:01:00,47.5,46.4,29.97,WNW,292,0.0,0.0,96,0.16,,---,0.45,VWS V14.01,2013-11-23 09:01:00,
2013-11-23 02:06:00,47.7,46.6,29.97,WSW,248,0.0,0.0,96,0.21,,---,0.50,VWS V14.01,2013-11-23 09:06:00,
2013-11-23 02:11:00,47.7,46.8,30.00,West,270,0.0,0.0,97,0.17,,---,0.50,VWS V14.01,2013-11-23 09:11:00,
2013-11-23 02:16:00,47.8,47.0,30.00,WSW,248,0.0,1.6,97,0.17,,---,0.50,VWS V14.01,2013-11-23 09:16:00,
2013-11-23 02:21:00,47.8,47.0,30.00,WSW,248,0.0,0.0,97,0.17,,---,0.50,VWS V14.01,2013-11-23 09:21:00,
2013-11-23 02:26:00,47.8,47.0,30.00,WSW,248,0.0,1.1,97,0.13,,---,0.50,VWS V14.01,2013-11-23 09:26:00,
2013-11-23 02:31:00,48.0,47.2,30.00,West,270,0.0,0.0,97,0.17,,---,0.54,VWS V14.01,2013-11-23 09:31:00,
2013-11-23 02:36:00,47.8,47.0,30.00,West,270,0.0,0.0,97,0.17,,---,0.54,VWS V14.01,2013-11-23 09:36:00,
2013-11-23 02:41:00,47.8,47.0,30.00,West,270,0.0,0.0,97,0.12,,---,0.54,VWS V14.01,2013-11-23 09:41:00,
2013-11-23 02:46:00,47.8,47.0,30.00,West,270,0.0,0.0,97,0.12,,---,0.54,VWS V14.01,2013-11-23 09:46:00,
2013-11-23 02:51:00,48.0,47.2,30.00,WNW,292,0.0,0.0,97,0.16,,---,0.58,VWS V14.01,2013-11-23 09:51:00,
2013-11-23 02:56:00,48.0,47.2,30.00,WNW,292,0.0,0.0,97,0.13,,---,0.58,VWS V14.01,2013-11-23 09:56:00,
2013-11-23 03:01:00,48.0,47.2,30.00,WNW,292,0.0,0.0,97,0.13,,---,0.58,VWS V14.01,2013-11-23 10:01:00,
2013-11-23 03:06:00,48.2,47.1,30.00,WNW,292,0.0,0.0,96,0.08,,---,0.58,VWS V14.01,2013-11-23 10:06:00,
2013-11-23 03:11:00,48.2,47.4,30.00,WNW,292,0.0,0.0,97,0.08,,---,0.58,VWS V14.01,2013-11-23 10:11:00,
2013-11-23 03:16:00,48.2,47.4,30.00,West,270,0.9,0.9,97,0.08,,---,0.58,VWS V14.01,2013-11-23 10:16:00,
2013-11-23 03:21:00,48.2,47.1,30.00,WNW,292,0.0,0.0,96,0.08,,---,0.58,VWS V14.01,2013-11-23 10:21:00,
2013-11-23 03:26:00,48.2,47.1,30.00,WNW,292,0.0,0.0,96,0.08,,---,0.58,VWS V14.01,2013-11-23 10:26:00,
2013-11-23 03:31:00,48.2,47.1,30.00,WNW,292,0.0,0.0,96,0.04,,---,0.58,VWS V14.01,2013-11-23 10:31:00,
2013-11-23 03:36:00,48.2,47.1,30.00,WNW,292,0.0,0.0,96,0.08,,---,0.62,VWS V14.01,2013-11-23 10:36:00,
2013-11-23 03:41:00,48.2,47.1,30.00,WNW,292,0.0,0.0,96,0.08,,---,0.62,VWS V14.01,2013-11-23 10:41:00,
2013-11-23 03:46:00,48.2,47.1,30.00,West,270,0.0,0.0,96,0.08,,---,0.62,VWS V14.01,2013-11-23 10:46:00,
2013-11-23 03:51:00,48.2,47.1,30.00,West,270,0.0,0.0,96,0.04,,---,0.62,VWS V14.01,2013-11-23 10:51:00,
2013-11-23 03:56:00,48.2,47.1,29.97,West,270,0.0,0.0,96,0.04,,---,0.62,VWS V14.01,2013-11-23 10:56:00,
2013-11-23 04:01:00,48.0,46.9,29.97,West,270,0.0,0.0,96,0.04,,---,0.62,VWS V14.01,2013-11-23 11:01:00,
2013-11-23 04:06:00,48.0,46.9,29.97,West,270,0.0,0.0,96,0.04,,---,0.62,VWS V14.01,2013-11-23 11:06:00,
2013-11-23 04:11:00,48.2,47.1,29.97,West,270,0.0,0.0,96,0.04,,---,0.62,VWS V14.01,2013-11-23 11:11:00,
2013-11-23 04:17:00,48.2,47.1,29.97,West,270,0.0,0.0,96,0.04,,---,0.62,VWS V14.01,2013-11-23 11:17:00,
2013-11-23 04:21:00,48.4,47.3,29.97,West,270,0.0,0.0,96,0.04,,---,0.62,VWS V14.01,2013-11-23 11:21:00,
2013-11-23 04:27:00,48.4,47.3,30.00,West,270,0.0,0.0,96,0.04,,---,0.62,VWS V14.01,2013-11-23 11:27:00,
2013-11-23 04:32:00,48.4,47.3,30.00,West,270,0.0,0.0,96,0.04,,---,0.62,VWS V14.01,2013-11-23 11:32:00,
2013-11-23 04:37:00,48.0,46.9,30.00,North,0,0.0,0.0,96,0.04,,---,0.66,VWS V14.01,2013-11-23 11:37:00,
2013-11-23 04:42:00,47.8,46.8,29.97,NNE,22,0.0,0.0,96,0.04,,---,0.66,VWS V14.01,2013-11-23 11:42:00,
2013-11-23 04:47:00,47.8,46.8,29.97,East,90,0.0,1.1,96,0.04,,---,0.66,VWS V14.01,2013-11-23 11:47:00,
2013-11-23 04:52:00,47.8,46.8,29.97,ESE,112,0.0,0.0,96,0.04,,---,0.66,VWS V14.01,2013-11-23 11:52:00,
2013-11-23 04:57:00,47.8,46.8,29.97,East,90,0.0,0.0,96,0.04,,---,0.66,VWS V14.01,2013-11-23 11:57:00,
2013-11-23 05:02:00,47.8,46.8,29.97,ESE,112,3.4,3.4,96,0.04,,---,0.66,VWS V14.01,2013-11-23 12:02:00,
2013-11-23 05:07:00,47.8,46.8,29.97,ENE,68,3.4,3.4,96,0.08,,---,0.70,VWS V14.01,2013-11-23 12:07:00,
2013-11-23 05:12:00,47.7,46.6,30.00,East,90,2.7,2.9,96,0.08,,---,0.70,VWS V14.01,2013-11-23 12:12:00,
2013-11-23 05:17:00,47.7,46.8,30.00,NE,45,2.9,2.9,97,0.08,,---,0.70,VWS V14.01,2013-11-23 12:17:00,
2013-11-23 05:22:00,47.7,46.8,30.00,NE,45,1.1,1.1,97,0.08,,---,0.70,VWS V14.01,2013-11-23 12:22:00,
2013-11-23 05:27:00,47.5,47.0,29.97,East,90,0.0,0.0,98,0.08,,---,0.70,VWS V14.01,2013-11-23 12:27:00,
2013-11-23 05:32:00,47.5,47.0,29.97,East,90,2.5,2.5,98,0.08,,---,0.70,VWS V14.01,2013-11-23 12:32:00,
2013-11-23 05:37:00,47.5,47.0,29.97,ENE,68,0.0,0.0,98,0.04,,---,0.70,VWS V14.01,2013-11-23 12:37:00,
2013-11-23 05:42:00,47.5,47.0,29.97,ENE,68,4.5,4.5,98,0.04,,---,0.70,VWS V14.01,2013-11-23 12:42:00,
2013-11-23 05:47:00,47.5,47.0,29.97,East,90,0.0,2.7,98,0.04,,---,0.70,VWS V14.01,2013-11-23 12:47:00,
2013-11-23 05:52:00,47.5,47.0,29.97,North,0,0.0,0.0,98,0.09,,---,0.75,VWS V14.01,2013-11-23 12:52:00,
2013-11-23 05:57:00,47.5,47.0,29.97,NNW,338,4.7,4.7,98,0.09,,---,0.75,VWS V14.01,2013-11-23 12:57:00,
2013-11-23 06:02:00,47.5,47.0,29.97,East,90,0.0,0.0,98,0.09,,---,0.75,VWS V14.01,2013-11-23 13:02:00,
2013-11-23 06:07:00,47.5,47.0,29.97,NNW,338,2.5,2.5,98,0.05,,---,0.75,VWS V14.01,2013-11-23 13:07:00,
2013-11-23 06:12:00,47.5,47.0,29.97,North,0,2.2,2.7,98,0.05,,---,0.75,VWS V14.01,2013-11-23 13:12:00,
2013-11-23 06:17:00,47.5,47.0,29.97,North,0,0.9,0.9,98,0.09,,---,0.79,VWS V14.01,2013-11-23 13:17:00,
2013-11-23 06:22:00,47.5,47.0,29.97,NNW,338,0.0,0.0,98,0.09,,---,0.79,VWS V14.01,2013-11-23 13:22:00,
2013-11-23 06:27:00,47.5,47.0,30.00,North,0,0.0,0.0,98,0.09,,---,0.79,VWS V14.01,2013-11-23 13:27:00,
2013-11-23 06:32:00,47.7,47.1,30.00,NNW,338,0.0,1.6,98,0.13,,---,0.83,VWS V14.01,2013-11-23 13:32:00,
2013-11-23 06:38:00,47.7,47.1,30.00,NNW,338,0.0,0.0,98,0.13,,---,0.83,VWS V14.01,2013-11-23 13:38:00,
2013-11-23 06:43:00,47.7,47.1,30.00,NNW,338,0.0,0.0,98,0.13,,---,0.83,VWS V14.01,2013-11-23 13:43:00,
2013-11-23 06:48:00,47.7,47.1,30.00,North,0,0.0,0.0,98,0.13,,---,0.83,VWS V14.01,2013-11-23 13:48:00,
2013-11-23 06:53:00,47.7,47.1,30.00,NNW,338,0.0,0.0,98,0.12,,---,0.87,VWS V14.01,2013-11-23 13:53:00,
2013-11-23 06:58:00,47.7,47.1,30.00,North,0,0.0,0.0,98,0.12,,---,0.87,VWS V14.01,2013-11-23 13:58:00,
2013-11-23 07:03:00,47.8,47.3,30.00,NW,315,0.0,0.0,98,0.12,,---,0.87,VWS V14.01,2013-11-23 14:03:00,
2013-11-23 07:08:00,47.8,47.3,30.00,NW,315,0.0,0.0,98,0.12,,---,0.87,VWS V14.01,2013-11-23 14:08:00,
2013-11-23 07:13:00,48.0,47.5,30.00,NW,315,0.0,0.0,98,0.12,,---,0.87,VWS V14.01,2013-11-23 14:13:00,
2013-11-23 07:18:00,48.0,47.5,30.00,NW,315,0.0,0.0,98,0.08,,---,0.87,VWS V14.01,2013-11-23 14:18:00,
2013-11-23 07:23:00,48.2,47.7,30.00,NW,315,0.0,0.0,98,0.12,,---,0.91,VWS V14.01,2013-11-23 14:23:00,
2013-11-23 07:28:00,48.2,47.7,30.00,NW,315,0.0,0.0,98,0.12,,---,0.91,VWS V14.01,2013-11-23 14:28:00,
2013-11-23 07:33:00,48.4,47.8,30.00,SE,135,0.0,0.0,98,0.08,,---,0.91,VWS V14.01,2013-11-23 14:33:00,
2013-11-23 07:38:00,48.6,48.0,30.00,ESE,112,0.0,1.6,98,0.08,,---,0.91,VWS V14.01,2013-11-23 14:38:00,
2013-11-23 07:43:00,48.7,48.2,30.03,SSE,158,0.0,0.0,98,0.08,,---,0.91,VWS V14.01,2013-11-23 14:43:00,
2013-11-23 07:48:00,48.6,48.0,30.03,East,90,0.0,0.0,98,0.08,,---,0.91,VWS V14.01,2013-11-23 14:48:00,
2013-11-23 07:53:00,48.7,48.2,30.03,ESE,112,0.0,2.2,98,0.08,,---,0.95,VWS V14.01,2013-11-23 14:53:00,
2013-11-23 07:58:00,48.7,48.2,30.03,ESE,112,0.0,0.0,98,0.08,,---,0.95,VWS V14.01,2013-11-23 14:58:00,
2013-11-23 08:03:00,48.6,48.0,30.03,NNW,338,0.0,0.0,98,0.08,,---,0.95,VWS V14.01,2013-11-23 15:03:00,
2013-11-23 08:08:00,48.4,47.8,30.03,NNE,22,0.0,0.0,98,0.08,,---,0.95,VWS V14.01,2013-11-23 15:08:00,
2013-11-23 08:14:00,48.4,47.8,30.03,ENE,68,2.2,2.2,98,0.08,,---,0.95,VWS V14.01,2013-11-23 15:14:00,
2013-11-23 08:19:00,48.6,48.0,30.03,East,90,0.0,0.0,98,0.12,,---,0.99,VWS V14.01,2013-11-23 15:19:00,
2013-11-23 08:24:00,48.6,48.0,30.03,East,90,0.0,0.0,98,0.08,,---,0.99,VWS V14.01,2013-11-23 15:24:00,
2013-11-23 08:29:00,48.6,48.0,30.03,East,90,3.4,3.4,98,0.08,,---,0.99,VWS V14.01,2013-11-23 15:29:00,
2013-11-23 08:34:00,48.6,48.0,30.03,East,90,4.0,5.8,98,0.08,,---,0.99,VWS V14.01,2013-11-23 15:34:00,
2013-11-23 08:39:00,48.6,48.0,30.03,East,90,4.3,4.3,98,0.08,,---,0.99,VWS V14.01,2013-11-23 15:39:00,
2013-11-23 08:44:00,48.6,48.0,30.03,NE,45,4.7,4.7,98,0.08,,---,0.99,VWS V14.01,2013-11-23 15:44:00,
2013-11-23 08:49:00,48.6,48.0,30.03,East,90,4.7,4.7,98,0.08,,---,0.99,VWS V14.01,2013-11-23 15:49:00,
2013-11-23 08:54:00,48.6,48.0,30.03,East,90,3.8,5.4,98,0.04,,---,0.99,VWS V14.01,2013-11-23 15:54:00,
2013-11-23 08:59:00,48.6,48.0,30.03,NE,45,3.4,3.4,98,0.04,,---,0.99,VWS V14.01,2013-11-23 15:59:00,
2013-11-23 09:04:00,48.6,48.0,30.03,NE,45,2.0,4.7,98,0.04,,---,0.99,VWS V14.01,2013-11-23 16:04:00,
2013-11-23 09:09:00,48.6,48.0,30.03,ENE,68,1.3,1.3,98,0.09,,---,1.04,VWS V14.01,2013-11-23 16:09:00,
2013-11-23 09:14:00,48.6,48.0,30.03,NNW,338,2.9,2.9,98,0.09,,---,1.04,VWS V14.01,2013-11-23 16:14:00,
2013-11-23 09:19:00,48.7,48.2,30.03,NE,45,2.5,2.5,98,0.05,,---,1.04,VWS V14.01,2013-11-23 16:19:00,
2013-11-23 09:24:00,48.6,48.0,30.03,NW,315,9.8,9.8,98,0.05,,---,1.04,VWS V14.01,2013-11-23 16:24:00,
2013-11-23 09:29:00,48.6,48.0,30.03,NW,315,3.8,3.8,98,0.05,,---,1.04,VWS V14.01,2013-11-23 16:29:00,
2013-11-23 09:34:00,48.6,47.8,30.03,NW,315,0.0,5.6,97,0.05,,---,1.04,VWS V14.01,2013-11-23 16:34:00,
2013-11-23 09:39:00,48.6,47.8,30.00,NNE,22,1.1,5.4,97,0.05,,---,1.04,VWS V14.01,2013-11-23 16:39:00,
2013-11-23 09:44:00,48.6,47.8,30.00,ENE,68,3.6,3.6,97,0.05,,---,1.04,VWS V14.01,2013-11-23 16:44:00,
2013-11-23 09:49:00,48.6,47.5,30.00,NW,315,1.3,3.1,96,0.05,,---,1.04,VWS V14.01,2013-11-23 16:49:00,
2013-11-23 09:55:00,48.6,47.5,30.03,East,90,2.0,2.0,96,0.05,,---,1.04,VWS V14.01,2013-11-23 16:55:00,
2013-11-23 10:00:00,48.6,47.5,30.03,East,90,2.9,2.9,96,0.09,,---,1.08,VWS V14.01,2013-11-23 17:00:00,
2013-11-23 10:05:00,48.7,47.9,30.03,East,90,2.5,2.5,97,0.09,,---,1.08,VWS V14.01,2013-11-23 17:05:00,
2013-11-23 10:10:00,48.7,47.9,30.03,South,180,0.0,0.0,97,0.04,,---,1.08,VWS V14.01,2013-11-23 17:10:00,
2013-11-23 10:15:00,49.1,48.3,30.03,WSW,248,0.0,1.3,97,0.08,,---,1.12,VWS V14.01,2013-11-23 17:15:00,
2013-11-23 10:20:00,49.3,48.7,30.03,WSW,248,0.0,0.0,98,0.08,,---,1.12,VWS V14.01,2013-11-23 17:20:00,
2013-11-23 10:25:00,49.3,48.7,30.03,SSE,158,0.0,0.0,98,0.08,,---,1.12,VWS V14.01,2013-11-23 17:25:00,
2013-11-23 10:30:00,49.3,48.7,30.03,NNW,338,0.0,0.0,98,0.08,,---,1.12,VWS V14.01,2013-11-23 17:30:00,
2013-11-23 10:35:00,49.3,48.7,30.03,North,0,0.0,0.0,98,0.08,,---,1.12,VWS V14.01,2013-11-23 17:35:00,
2013-11-23 10:40:00,49.3,48.7,30.03,NE,45,0.0,0.0,98,0.08,,---,1.12,VWS V14.01,2013-11-23 17:40:00,
2013-11-23 10:45:00,49.5,48.9,30.03,East,90,0.0,0.0,98,0.08,,---,1.12,VWS V14.01,2013-11-23 17:45:00,
2013-11-23 10:50:00,49.6,49.1,30.03,NE,45,1.3,1.3,98,0.08,,---,1.12,VWS V14.01,2013-11-23 17:50:00,
2013-11-23 10:55:00,49.6,49.1,30.03,North,0,0.0,0.0,98,0.12,,---,1.16,VWS V14.01,2013-11-23 17:55:00,
2013-11-23 11:01:00,49.8,49.3,30.03,North,0,0.0,0.0,98,0.08,,---,1.16,VWS V14.01,2013-11-23 18:01:00,
2013-11-23 11:06:00,50.0,49.5,30.03,North,0,3.1,3.1,98,0.08,,---,1.16,VWS V14.01,2013-11-23 18:06:00,
2013-11-23 11:11:00,49.8,49.0,30.03,NW,315,0.9,0.9,97,0.08,,---,1.16,VWS V14.01,2013-11-23 18:11:00,
2013-11-23 11:16:00,49.8,49.0,30.03,SE,135,0.0,0.0,97,0.04,,---,1.16,VWS V14.01,2013-11-23 18:16:00,
2013-11-23 11:21:00,50.0,49.2,30.03,ESE,112,0.0,0.0,97,0.04,,---,1.16,VWS V14.01,2013-11-23 18:21:00,
2013-11-23 11:26:00,50.2,49.4,30.03,NNW,338,2.7,2.7,97,0.04,,---,1.16,VWS V14.01,2013-11-23 18:26:00,
2013-11-23 11:31:00,50.0,48.9,30.03,ENE,68,0.0,0.0,96,0.04,,---,1.16,VWS V14.01,2013-11-23 18:31:00,
2013-11-23 11:36:00,50.0,49.2,30.03,ENE,68,3.4,3.4,97,0.04,,---,1.16,VWS V14.01,2013-11-23 18:36:00,
2013-11-23 11:41:00,50.2,49.4,30.00,SE,135,0.9,0.9,97,0.08,,---,1.20,VWS V14.01,2013-11-23 18:41:00,
2013-11-23 11:46:00,50.0,49.2,30.00,NNW,338,0.0,1.6,97,0.08,,---,1.20,VWS V14.01,2013-11-23 18:46:00,
2013-11-23 11:51:00,49.8,49.0,30.00,North,0,3.1,3.1,97,0.08,,---,1.20,VWS V14.01,2013-11-23 18:51:00,
2013-11-23 11:56:00,50.2,49.4,30.00,North,0,2.5,2.5,97,0.04,,---,1.20,VWS V14.01,2013-11-23 18:56:00,
2013-11-23 12:01:00,50.2,49.4,30.00,East,90,2.9,2.9,97,0.04,,---,1.20,VWS V14.01,2013-11-23 19:01:00,
2013-11-23 12:06:00,50.4,49.5,30.00,North,0,0.0,0.0,97,0.04,,---,1.20,VWS V14.01,2013-11-23 19:06:00,
2013-11-23 12:12:00,50.2,49.4,30.00,SSE,158,0.0,0.0,97,0.08,,---,1.24,VWS V14.01,2013-11-23 19:12:00,
2013-11-23 12:17:00,49.8,48.5,30.00,North,0,1.6,1.6,95,0.08,,---,1.24,VWS V14.01,2013-11-23 19:17:00,
2013-11-23 12:22:00,50.0,48.3,30.00,ESE,112,1.6,1.6,94,0.08,,---,1.24,VWS V14.01,2013-11-23 19:22:00,
2013-11-23 12:27:00,50.0,48.6,30.00,North,0,0.0,0.0,95,0.08,,---,1.24,VWS V14.01,2013-11-23 19:27:00,
2013-11-23 12:32:00,50.0,48.6,30.00,NNW,338,0.0,0.0,95,0.08,,---,1.24,VWS V14.01,2013-11-23 19:32:00,
2013-11-23 12:37:00,50.0,48.6,30.00,East,90,0.0,0.0,95,0.04,,---,1.24,VWS V14.01,2013-11-23 19:37:00,
2013-11-23 12:42:00,50.0,48.3,30.00,NE,45,0.0,0.0,94,0.04,,---,1.24,VWS V14.01,2013-11-23 19:42:00,
2013-11-23 12:47:00,50.2,48.8,30.00,ENE,68,0.0,0.0,95,0.09,,---,1.29,VWS V14.01,2013-11-23 19:47:00,
2013-11-23 12:52:00,50.2,48.8,30.00,East,90,0.0,0.0,95,0.09,,---,1.29,VWS V14.01,2013-11-23 19:52:00,
2013-11-23 12:57:00,50.2,48.8,30.00,East,90,0.0,0.0,95,0.09,,---,1.29,VWS V14.01,2013-11-23 19:57:00,
2013-11-23 13:02:00,50.0,48.6,30.00,East,90,0.0,0.0,95,0.09,,---,1.29,VWS V14.01,2013-11-23 20:02:00,
2013-11-23 13:07:00,49.8,48.5,30.00,NNW,338,3.4,3.4,95,0.12,,---,1.32,VWS V14.01,2013-11-23 20:07:00,
2013-11-23 13:12:00,50.0,48.6,30.00,ENE,68,0.0,0.0,95,0.08,,---,1.32,VWS V14.01,2013-11-23 20:12:00,
2013-11-23 13:17:00,50.4,49.0,30.00,North,0,2.2,2.2,95,0.08,,---,1.32,VWS V14.01,2013-11-23 20:17:00,
2013-11-23 13:22:00,50.5,49.2,30.00,NNW,338,2.7,3.1,95,0.08,,---,1.32,VWS V14.01,2013-11-23 20:22:00,
2013-11-23 13:27:00,50.9,49.5,30.00,NNE,22,3.6,3.6,95,0.08,,---,1.32,VWS V14.01,2013-11-23 20:27:00,
2013-11-23 13:33:00,50.9,49.5,30.00,NE,45,0.0,0.0,95,0.08,,---,1.32,VWS V14.01,2013-11-23 20:33:00,
2013-11-23 13:38:00,51.6,50.5,30.00,ENE,68,0.0,0.0,96,0.08,,---,1.32,VWS V14.01,2013-11-23 20:38:00,
2013-11-23 13:43:00,52.2,51.1,30.00,SE,135,2.5,2.5,96,0.03,,---,1.32,VWS V14.01,2013-11-23 20:43:00,
2013-11-23 13:48:00,52.5,51.4,30.00,East,90,0.0,2.2,96,0.03,,---,1.32,VWS V14.01,2013-11-23 20:48:00,
2013-11-23 13:53:00,52.7,51.6,30.00,East,90,1.1,1.1,96,0.03,,---,1.32,VWS V14.01,2013-11-23 20:53:00,
2013-11-23 13:58:00,52.7,51.6,30.00,East,90,1.1,1.1,96,0.03,,---,1.32,VWS V14.01,2013-11-23 20:58:00,
2013-11-23 14:03:00,52.2,49.9,30.00,NW,315,1.1,1.1,92,0.03,,---,1.32,VWS V14.01,2013-11-23 21:03:00,
2013-11-23 14:08:00,52.0,48.5,30.00,East,90,0.0,0.0,88,0.00,,---,1.32,VWS V14.01,2013-11-23 21:08:00,
2013-11-23 14:13:00,52.0,48.5,30.00,North,0,2.7,3.4,88,0.00,,---,1.32,VWS V14.01,2013-11-23 21:13:00,
2013-11-23 14:18:00,51.8,47.4,30.00,NNW,338,2.7,2.7,85,0.00,,---,1.32,VWS V14.01,2013-11-23 21:18:00,
2013-11-23 14:23:00,52.0,47.3,30.00,NW,315,0.0,0.0,84,0.00,,---,1.32,VWS V14.01,2013-11-23 21:23:00,
2013-11-23 14:28:00,52.5,48.5,30.00,NE,45,0.0,0.0,86,0.00,,---,1.32,VWS V14.01,2013-11-23 21:28:00,
2013-11-23 14:33:00,52.7,48.6,30.00,North,0,0.0,0.0,86,0.00,,---,1.32,VWS V14.01,2013-11-23 21:33:00,
2013-11-23 14:38:00,52.7,47.7,30.00,ESE,112,0.0,2.2,83,0.00,,---,1.32,VWS V14.01,2013-11-23 21:38:00,
2013-11-23 14:43:00,53.1,48.4,29.97,East,90,0.0,0.0,84,0.00,,---,1.32,VWS V14.01,2013-11-23 21:43:00,
2013-11-23 14:48:00,53.1,48.0,29.97,North,0,2.5,2.5,83,0.00,,---,1.32,VWS V14.01,2013-11-23 21:48:00,
2013-11-23 14:53:00,53.1,47.4,29.97,NW,315,0.0,0.0,81,0.00,,---,1.32,VWS V14.01,2013-11-23 21:53:00,
2013-11-23 14:58:00,53.2,47.6,29.97,NNW,338,2.0,2.0,81,0.00,,---,1.32,VWS V14.01,2013-11-23 21:58:00,
2013-11-23 15:04:00,53.4,48.1,29.97,ESE,112,0.0,0.0,82,0.00,,---,1.32,VWS V14.01,2013-11-23 22:04:00,
2013-11-23 15:09:00,53.8,48.4,29.97,NW,315,0.0,0.0,82,0.00,,---,1.32,VWS V14.01,2013-11-23 22:09:00,
2013-11-23 15:14:00,54.3,46.2,29.97,NNW,338,0.0,3.1,74,0.00,,---,1.32,VWS V14.01,2013-11-23 22:14:00,
2013-11-23 15:19:00,55.0,49.7,29.97,SSW,202,0.0,0.0,82,0.00,,---,1.32,VWS V14.01,2013-11-23 22:19:00,
2013-11-23 15:24:00,55.2,49.8,29.97,WSW,248,1.1,2.0,82,0.00,,---,1.32,VWS V14.01,2013-11-23 22:24:00,
2013-11-23 15:29:00,55.2,49.5,29.97,WSW,248,0.0,0.0,81,0.00,,---,1.32,VWS V14.01,2013-11-23 22:29:00,
2013-11-23 15:34:00,55.2,49.5,29.97,WSW,248,1.3,1.3,81,0.00,,---,1.32,VWS V14.01,2013-11-23 22:34:00,
2013-11-23 15:39:00,55.2,49.5,29.97,SW,225,1.1,1.1,81,0.00,,---,1.32,VWS V14.01,2013-11-23 22:39:00,
2013-11-23 15:44:00,55.0,49.7,29.97,WSW,248,1.3,2.2,82,0.00,,---,1.32,VWS V14.01,2013-11-23 22:44:00,
2013-11-23 15:49:00,55.2,50.2,29.97,SW,225,1.1,1.1,83,0.00,,---,1.32,VWS V14.01,2013-11-23 22:49:00,
2013-11-23 15:55:00,55.6,50.2,29.97,ESE,112,2.2,2.2,82,0.00,,---,1.32,VWS V14.01,2013-11-23 22:55:00,
2013-11-23 16:00:00,55.6,50.2,30.00,SSE,158,2.0,2.9,82,0.00,,---,1.32,VWS V14.01,2013-11-23 23:00:00,
2013-11-23 16:05:00,55.6,50.2,30.00,SE,135,1.3,1.3,82,0.00,,---,1.32,VWS V14.01,2013-11-23 23:05:00,
2013-11-23 16:09:00,55.4,50.0,30.00,SSW,202,0.0,0.0,82,0.00,,---,1.32,VWS V14.01,2013-11-23 23:09:00,
2013-11-23 16:14:00,55.4,49.7,29.97,ESE,112,2.7,7.4,81,0.00,,---,1.32,VWS V14.01,2013-11-23 23:14:00,
2013-11-23 16:19:00,55.4,49.3,29.97,ESE,112,4.3,4.3,80,0.00,,---,1.32,VWS V14.01,2013-11-23 23:19:00,
2013-11-23 16:24:00,55.6,49.5,29.97,ESE,112,4.9,4.9,80,0.00,,---,1.32,VWS V14.01,2013-11-23 23:24:00,
2013-11-23 16:29:00,55.6,49.2,29.97,SE,135,4.0,4.7,79,0.00,,---,1.32,VWS V14.01,2013-11-23 23:29:00,
2013-11-23 16:34:00,55.4,48.7,29.97,SSE,158,0.0,0.0,78,0.00,,---,1.32,VWS V14.01,2013-11-23 23:34:00,
2013-11-23 16:39:00,54.9,46.4,29.97,SE,135,2.7,2.7,73,0.00,,---,1.32,VWS V14.01,2013-11-23 23:39:00,
2013-11-23 16:44:00,54.3,46.2,29.97,South,180,0.0,0.0,74,0.00,,---,1.32,VWS V14.01,2013-11-23 23:44:00,
2013-11-23 16:49:00,54.0,45.9,29.97,SSW,202,3.6,3.6,74,0.00,,---,1.32,VWS V14.01,2013-11-23 23:49:00,
2013-11-23 16:55:00,53.6,45.5,29.97,SE,135,0.0,0.0,74,0.00,,---,1.32,VWS V14.01,2013-11-23 23:55:00,
2013-11-23 17:00:00,53.2,45.5,29.97,SW,225,2.7,2.7,75,0.00,,---,1.32,VWS V14.01,2013-11-24 00:00:00,
2013-11-23 17:05:00,53.1,45.0,29.97,South,180,1.1,1.1,74,0.00,,---,1.32,VWS V14.01,2013-11-24 00:05:00,
2013-11-23 17:10:00,52.9,45.2,29.97,SSW,202,4.7,4.7,75,0.00,,---,1.32,VWS V14.01,2013-11-24 00:10:00,
2013-11-23 17:15:00,52.7,45.0,29.97,ESE,112,2.5,2.5,75,0.00,,---,1.32,VWS V14.01,2013-11-24 00:15:00,
2013-11-23 17:20:00,52.3,44.7,29.97,SSE,158,4.9,4.9,75,0.00,,---,1.32,VWS V14.01,2013-11-24 00:20:00,
2013-11-23 17:25:00,52.2,44.5,29.97,SSE,158,1.6,1.6,75,0.00,,---,1.32,VWS V14.01,2013-11-24 00:25:00,
2013-11-23 17:30:00,52.0,44.3,29.97,SSW,202,3.1,3.1,75,0.00,,---,1.32,VWS V14.01,2013-11-24 00:30:00,
2013-11-23 17:35:00,52.0,44.0,29.97,SE,135,3.1,3.1,74,0.00,,---,1.32,VWS V14.01,2013-11-24 00:35:00,
2013-11-23 17:40:00,52.0,44.0,29.97,SW,225,0.0,0.9,74,0.00,,---,1.32,VWS V14.01,2013-11-24 00:40:00,
2013-11-23 17:45:00,51.8,43.8,29.97,South,180,2.5,2.5,74,0.00,,---,1.32,VWS V14.01,2013-11-24 00:45:00,
2013-11-23 17:50:00,51.8,43.8,29.97,South,180,2.5,2.7,74,0.00,,---,1.32,VWS V14.01,2013-11-24 00:50:00,
2013-11-23 17:55:00,51.6,44.0,29.97,SSE,158,2.5,2.5,75,0.00,,---,1.32,VWS V14.01,2013-11-24 00:55:00,
2013-11-23 18:01:00,51.6,44.0,29.97,SSW,202,1.6,1.6,75,0.00,,---,1.32,VWS V14.01,2013-11-24 01:01:00,
2013-11-23 18:06:00,51.4,43.8,29.97,South,180,2.0,2.0,75,0.00,,---,1.32,VWS V14.01,2013-11-24 01:06:00,
2013-11-23 18:11:00,51.4,43.8,29.97,SE,135,2.5,2.5,75,0.00,,---,1.32,VWS V14.01,2013-11-24 01:11:00,
2013-11-23 18:16:00,51.6,44.0,29.97,SW,225,1.3,1.3,75,0.00,,---,1.32,VWS V14.01,2013-11-24 01:16:00,
2013-11-23 18:21:00,51.4,44.1,29.97,WSW,248,1.6,1.6,76,0.00,,---,1.32,VWS V14.01,2013-11-24 01:21:00,
2013-11-23 18:26:00,51.4,44.1,30.00,WSW,248,2.2,3.4,76,0.00,,---,1.32,VWS V14.01,2013-11-24 01:26:00,
2013-11-23 18:31:00,51.4,44.5,30.00,WSW,248,2.5,2.9,77,0.00,,---,1.32,VWS V14.01,2013-11-24 01:31:00,
2013-11-23 18:36:00,51.4,44.8,30.00,WSW,248,3.8,3.8,78,0.00,,---,1.32,VWS V14.01,2013-11-24 01:36:00,
2013-11-23 18:41:00,51.3,45.0,30.00,WSW,248,2.9,2.9,79,0.00,,---,1.32,VWS V14.01,2013-11-24 01:41:00,
2013-11-23 18:46:00,51.1,44.8,30.00,WNW,292,1.6,1.6,79,0.00,,---,1.32,VWS V14.01,2013-11-24 01:46:00,
2013-11-23 18:51:00,50.9,45.3,30.00,NW,315,3.1,3.1,81,0.00,,---,1.32,VWS V14.01,2013-11-24 01:51:00,
2013-11-23 18:56:00,50.7,45.1,30.00,SW,225,1.6,1.6,81,0.00,,---,1.32,VWS V14.01,2013-11-24 01:56:00,
2013-11-23 19:01:00,50.5,44.9,30.00,SSW,202,1.3,1.3,81,0.00,,---,1.32,VWS V14.01,2013-11-24 02:01:00,
2013-11-23 19:06:00,50.5,44.9,30.00,West,270,2.5,2.7,81,0.00,,---,1.32,VWS V14.01,2013-11-24 02:06:00,
2013-11-23 19:11:00,50.4,45.1,30.00,WNW,292,3.8,3.8,82,0.00,,---,1.32,VWS V14.01,2013-11-24 02:11:00,
2013-11-23 19:16:00,50.4,45.1,30.00,SW,225,2.0,3.6,82,0.00,,---,1.32,VWS V14.01,2013-11-24 02:16:00,
2013-11-23 19:21:00,50.2,45.2,30.00,NW,315,2.0,2.0,83,0.00,,---,1.32,VWS V14.01,2013-11-24 02:21:00,
2013-11-23 19:27:00,50.2,45.2,30.00,WSW,248,0.9,3.1,83,0.00,,---,1.32,VWS V14.01,2013-11-24 02:27:00,
2013-11-23 19:32:00,50.0,45.0,30.00,WSW,248,2.9,2.9,83,0.00,,---,1.32,VWS V14.01,2013-11-24 02:32:00,
2013-11-23 19:37:00,49.8,44.9,30.00,West,270,2.9,2.9,83,0.00,,---,1.32,VWS V14.01,2013-11-24 02:37:00,
2013-11-23 19:42:00,49.8,44.9,30.03,WSW,248,2.7,2.7,83,0.00,,---,1.32,VWS V14.01,2013-11-24 02:42:00,
2013-11-23 19:47:00,49.8,44.9,30.03,West,270,0.0,0.0,83,0.00,,---,1.32,VWS V14.01,2013-11-24 02:47:00,
2013-11-23 19:52:00,49.6,44.7,30.03,WNW,292,0.0,0.0,83,0.00,,---,1.32,VWS V14.01,2013-11-24 02:52:00,
2013-11-23 19:57:00,49.6,44.7,30.03,East,90,2.0,2.0,83,0.00,,---,1.32,VWS V14.01,2013-11-24 02:57:00,
2013-11-23 20:02:00,49.6,44.7,30.03,East,90,0.0,0.0,83,0.00,,---,1.32,VWS V14.01,2013-11-24 03:02:00,
2013-11-23 20:07:00,49.5,44.5,30.03,East,90,0.0,0.0,83,0.00,,---,1.32,VWS V14.01,2013-11-24 03:07:00,
2013-11-23 20:12:00,49.3,44.3,30.03,East,90,0.0,0.0,83,0.00,,---,1.32,VWS V14.01,2013-11-24 03:12:00,
2013-11-23 20:17:00,49.3,44.3,30.03,ENE,68,1.3,1.3,83,0.00,,---,1.32,VWS V14.01,2013-11-24 03:17:00,
2013-11-23 20:22:00,49.1,44.2,30.03,East,90,0.0,0.0,83,0.00,,---,1.32,VWS V14.01,2013-11-24 03:22:00,
2013-11-23 20:27:00,49.1,44.2,30.03,East,90,3.8,3.8,83,0.00,,---,1.32,VWS V14.01,2013-11-24 03:27:00,
2013-11-23 20:32:00,48.9,44.3,30.03,ENE,68,0.0,0.0,84,0.00,,---,1.32,VWS V14.01,2013-11-24 03:32:00,
2013-11-23 20:38:00,48.9,44.3,30.03,ENE,68,2.0,2.0,84,0.00,,---,1.32,VWS V14.01,2013-11-24 03:38:00,
2013-11-23 20:42:00,48.7,44.1,30.03,East,90,0.0,2.0,84,0.00,,---,1.32,VWS V14.01,2013-11-24 03:42:00,
2013-11-23 20:47:00,48.7,44.1,30.03,North,0,0.0,0.0,84,0.00,,---,1.32,VWS V14.01,2013-11-24 03:47:00,
2013-11-23 20:52:00,48.7,44.1,30.03,East,90,0.0,0.0,84,0.00,,---,1.32,VWS V14.01,2013-11-24 03:52:00,
2013-11-23 20:58:00,48.6,44.0,30.03,ENE,68,0.0,0.0,84,0.00,,---,1.32,VWS V14.01,2013-11-24 03:58:00,
2013-11-23 21:03:00,48.6,44.0,30.03,NNW,338,0.0,0.0,84,0.00,,---,1.32,VWS V14.01,2013-11-24 04:03:00,
2013-11-23 21:08:00,48.6,44.0,30.03,NNW,338,0.0,0.0,84,0.00,,---,1.32,VWS V14.01,2013-11-24 04:08:00,
2013-11-23 21:13:00,48.6,44.0,30.03,North,0,0.0,0.0,84,0.00,,---,1.32,VWS V14.01,2013-11-24 04:13:00,
2013-11-23 21:18:00,48.6,44.0,30.03,NNW,338,0.0,0.0,84,0.00,,---,1.32,VWS V14.01,2013-11-24 04:18:00,
2013-11-23 21:23:00,48.4,43.8,30.03,NNW,338,0.0,0.0,84,0.00,,---,1.32,VWS V14.01,2013-11-24 04:23:00,
2013-11-23 21:28:00,48.6,44.0,30.03,West,270,0.0,0.0,84,0.00,,---,1.32,VWS V14.01,2013-11-24 04:28:00,
2013-11-23 21:33:00,48.6,44.3,30.03,WNW,292,0.0,0.0,85,0.00,,---,1.32,VWS V14.01,2013-11-24 04:33:00,
2013-11-23 21:38:00,48.4,44.1,30.03,West,270,0.0,0.0,85,0.00,,---,1.32,VWS V14.01,2013-11-24 04:38:00,
2013-11-23 21:43:00,48.6,44.3,30.03,SSE,158,0.0,0.0,85,0.00,,---,1.32,VWS V14.01,2013-11-24 04:43:00,
2013-11-23 21:48:00,48.6,44.3,30.03,SSE,158,0.0,0.0,85,0.00,,---,1.32,VWS V14.01,2013-11-24 04:48:00,
2013-11-23 21:53:00,48.6,44.6,30.03,WSW,248,0.0,0.0,86,0.00,,---,1.32,VWS V14.01,2013-11-24 04:53:00,
2013-11-23 21:58:00,48.6,44.6,30.03,WSW,248,0.0,0.0,86,0.00,,---,1.32,VWS V14.01,2013-11-24 04:58:00,
2013-11-23 22:01:00,48.6,44.6,30.03,East,90,0.9,0.9,86,0.00,,---,1.32,VWS V14.01,2013-11-24 05:01:00,
2013-11-23 22:02:00,48.6,44.6,30.03,East,90,0.0,0.9,86,0.00,,---,1.32,VWS V14.01,2013-11-24 05:02:00,
2013-11-23 22:05:00,48.6,44.6,30.03,East,90,0.0,0.0,86,0.00,,---,1.32,VWS V14.01,2013-11-24 05:05:00,
2013-11-23 22:10:00,48.6,44.6,30.03,ESE,112,0.0,0.0,86,0.00,,---,1.32,VWS V14.01,2013-11-24 05:10:00,
2013-11-23 22:15:00,48.6,44.6,30.03,East,90,2.5,2.5,86,0.00,,---,1.32,VWS V14.01,2013-11-24 05:15:00,
2013-11-23 22:20:00,48.6,44.6,30.03,ESE,112,2.0,2.0,86,0.00,,---,1.32,VWS V14.01,2013-11-24 05:20:00,
2013-11-23 22:25:00,48.6,44.6,30.03,ESE,112,0.0,0.0,86,0.00,,---,1.32,VWS V14.01,2013-11-24 05:25:00,
2013-11-23 22:30:00,48.4,44.4,30.03,ENE,68,0.0,0.0,86,0.00,,---,1.32,VWS V14.01,2013-11-24 05:30:00,
2013-11-23 22:36:00,48.4,44.4,30.03,ESE,112,0.0,2.0,86,0.00,,---,1.32,VWS V14.01,2013-11-24 05:36:00,
2013-11-23 22:41:00,48.2,43.9,30.03,NNW,338,0.0,0.0,85,0.00,,---,1.32,VWS V14.01,2013-11-24 05:41:00,
2013-11-23 22:46:00,48.2,43.9,30.03,North,0,0.0,0.0,85,0.00,,---,1.32,VWS V14.01,2013-11-24 05:46:00,
2013-11-23 22:51:00,48.4,44.1,30.03,ESE,112,0.0,0.0,85,0.00,,---,1.32,VWS V14.01,2013-11-24 05:51:00,
2013-11-23 22:56:00,48.4,44.4,30.03,ESE,112,0.0,0.0,86,0.00,,---,1.32,VWS V14.01,2013-11-24 05:56:00,
2013-11-23 22:57:00,48.4,44.4,30.03,ESE,112,0.0,0.0,86,0.00,,---,1.32,VWS V14.01,2013-11-24 05:57:00,
2013-11-23 23:02:00,48.4,44.4,30.03,ESE,112,3.4,3.4,86,0.00,,---,1.32,VWS V14.01,2013-11-24 06:02:00,
2013-11-23 23:07:00,48.4,44.4,30.03,East,90,3.1,3.1,86,0.00,,---,1.32,VWS V14.01,2013-11-24 06:07:00,
2013-11-23 23:12:00,48.4,44.4,30.03,ESE,112,2.9,2.9,86,0.00,,---,1.32,VWS V14.01,2013-11-24 06:12:00,
2013-11-23 23:17:00,48.4,44.4,30.03,East,90,2.0,2.7,86,0.00,,---,1.32,VWS V14.01,2013-11-24 06:17:00,
2013-11-23 23:22:00,48.4,44.4,30.03,ESE,112,0.0,0.0,86,0.00,,---,1.32,VWS V14.01,2013-11-24 06:22:00,
2013-11-23 23:27:00,48.4,44.4,30.06,ESE,112,0.0,1.1,86,0.00,,---,1.32,VWS V14.01,2013-11-24 06:27:00,
2013-11-23 23:32:00,48.4,44.4,30.06,ESE,112,0.0,0.0,86,0.00,,---,1.32,VWS V14.01,2013-11-24 06:32:00,
2013-11-23 23:37:00,48.4,44.4,30.06,ESE,112,0.0,0.0,86,0.00,,---,1.32,VWS V14.01,2013-11-24 06:37:00,
2013-11-23 23:42:00,48.4,44.4,30.03,ESE,112,0.0,0.0,86,0.00,,---,1.32,VWS V14.01,2013-11-24 06:42:00,
2013-11-23 23:47:00,48.4,44.4,30.03,East,90,0.0,0.0,86,0.00,,---,1.32,VWS V14.01,2013-11-24 06:47:00,
2013-11-23 23:52:00,48.2,43.9,30.03,East,90,0.0,0.0,85,0.00,,---,1.32,VWS V14.01,2013-11-24 06:52:00,
2013-11-23 23:57:00,48.2,44.2,30.03,East,90,0.0,0.0,86,0.00,,---,0.00,VWS V14.01,2013-11-24 06:57:00,